Year,Month,Day,Hour,Minute,Value (Times are PST for temperature in C)
2016,04,21,00,00,18.50
2016,04,21,00,01,18.50
2016,04,21,00,02,18.50
2016,04,21,00,03,18.50
2016,04,21,00,04,18.50
2016,04,21,00,05,18.40
2016,04,21,00,06,18.40
2016,04,21,00,07,18.40
2016,04,21,00,08,18.30
2016,04,21,00,09,18.30
2016,04,21,00,10,18.30
2016,04,21,00,11,18.30
2016,04,21,00,12,18.30
2016,04,21,00,13,18.20
2016,04,21,00,14,18.20
2016,04,21,00,15,18.10
2016,04,21,00,16,18.00
2016,04,21,00,17,17.90
2016,04,21,00,18,17.90
2016,04,21,00,19,17.80
2016,04,21,00,20,17.80
2016,04,21,00,21,17.70
2016,04,21,00,22,17.70
2016,04,21,00,23,17.70
2016,04,21,00,24,17.70
2016,04,21,00,25,17.60
2016,04,21,00,26,17.60
2016,04,21,00,27,17.60
2016,04,21,00,28,17.60
2016,04,21,00,29,17.60
2016,04,21,00,30,17.50
2016,04,21,00,31,17.50
2016,04,21,00,32,17.50
2016,04,21,00,33,17.50
2016,04,21,00,34,17.50
2016,04,21,00,35,17.60
2016,04,21,00,36,17.60
2016,04,21,00,37,17.60
2016,04,21,00,38,17.60
2016,04,21,00,39,17.60
2016,04,21,00,40,17.60
2016,04,21,00,41,17.60
2016,04,21,00,42,17.60
2016,04,21,00,43,17.60
2016,04,21,00,44,17.50
2016,04,21,00,45,17.50
2016,04,21,00,46,17.50
2016,04,21,00,47,17.40
2016,04,21,00,48,17.40
2016,04,21,00,49,17.40
2016,04,21,00,50,17.40
2016,04,21,00,51,17.30
2016,04,21,00,52,17.30
2016,04,21,00,53,17.30
2016,04,21,00,54,17.30
2016,04,21,00,55,17.30
2016,04,21,00,56,17.30
2016,04,21,00,57,17.30
2016,04,21,00,58,17.30
2016,04,21,00,59,17.30
2016,04,21,01,00,17.30
2016,04,21,01,01,17.30
2016,04,21,01,02,17.30
2016,04,21,01,03,17.20
2016,04,21,01,04,17.20
2016,04,21,01,05,17.20
2016,04,21,01,06,17.20
2016,04,21,01,07,17.10
2016,04,21,01,08,17.10
2016,04,21,01,09,17.10
2016,04,21,01,10,17.10
2016,04,21,01,11,17.10
2016,04,21,01,12,17.00
2016,04,21,01,13,17.00
2016,04,21,01,14,17.00
2016,04,21,01,15,16.90
2016,04,21,01,16,16.90
2016,04,21,01,17,16.90
2016,04,21,01,18,16.90
2016,04,21,01,19,16.80
2016,04,21,01,20,16.80
2016,04,21,01,21,16.80
2016,04,21,01,22,16.80
2016,04,21,01,23,16.70
2016,04,21,01,24,16.70
2016,04,21,01,25,16.70
2016,04,21,01,26,16.70
2016,04,21,01,27,16.60
2016,04,21,01,28,16.60
2016,04,21,01,29,16.60
2016,04,21,01,30,16.60
2016,04,21,01,31,16.60
2016,04,21,01,32,16.60
2016,04,21,01,33,16.60
2016,04,21,01,34,16.50
2016,04,21,01,35,16.50
2016,04,21,01,36,16.50
2016,04,21,01,37,16.50
2016,04,21,01,38,16.50
2016,04,21,01,39,16.50
2016,04,21,01,40,16.40
2016,04,21,01,41,16.40
2016,04,21,01,42,16.40
2016,04,21,01,43,16.40
2016,04,21,01,44,16.40
2016,04,21,01,45,16.40
2016,04,21,01,46,16.40
2016,04,21,01,47,16.30
2016,04,21,01,48,16.30
2016,04,21,01,49,16.30
2016,04,21,01,50,16.30
2016,04,21,01,51,16.30
2016,04,21,01,52,16.30
2016,04,21,01,53,16.20
2016,04,21,01,54,16.20
2016,04,21,01,55,16.20
2016,04,21,01,56,16.20
2016,04,21,01,57,16.10
2016,04,21,01,58,16.10
2016,04,21,01,59,16.10
2016,04,21,02,00,16.00
2016,04,21,02,01,15.90
2016,04,21,02,02,15.90
2016,04,21,02,03,15.80
2016,04,21,02,04,15.80
2016,04,21,02,05,15.70
2016,04,21,02,06,15.70
2016,04,21,02,07,15.70
2016,04,21,02,08,15.60
2016,04,21,02,09,15.60
2016,04,21,02,10,15.50
2016,04,21,02,11,15.50
2016,04,21,02,12,15.40
2016,04,21,02,13,15.40
2016,04,21,02,14,15.40
2016,04,21,02,15,15.30
2016,04,21,02,16,15.30
2016,04,21,02,17,15.20
2016,04,21,02,18,15.20
2016,04,21,02,19,15.20
2016,04,21,02,20,15.10
2016,04,21,02,21,15.10
2016,04,21,02,22,15.00
2016,04,21,02,23,15.00
2016,04,21,02,24,15.00
2016,04,21,02,25,15.00
2016,04,21,02,26,15.00
2016,04,21,02,27,15.00
2016,04,21,02,28,15.00
2016,04,21,02,29,15.00
2016,04,21,02,30,15.00
2016,04,21,02,31,15.00
2016,04,21,02,32,15.00
2016,04,21,02,33,15.00
2016,04,21,02,34,15.00
2016,04,21,02,35,15.00
2016,04,21,02,36,15.00
2016,04,21,02,37,15.00
2016,04,21,02,38,15.00
2016,04,21,02,39,15.00
2016,04,21,02,40,15.00
2016,04,21,02,41,15.00
2016,04,21,02,42,15.00
2016,04,21,02,43,15.00
2016,04,21,02,44,15.00
2016,04,21,02,45,15.00
2016,04,21,02,46,14.90
2016,04,21,02,47,14.90
2016,04,21,02,48,14.90
2016,04,21,02,49,14.90
2016,04,21,02,50,14.80
2016,04,21,02,51,14.80
2016,04,21,02,52,14.80
2016,04,21,02,53,14.80
2016,04,21,02,54,14.80
2016,04,21,02,55,14.80
2016,04,21,02,56,14.80
2016,04,21,02,57,14.80
2016,04,21,02,58,14.70
2016,04,21,02,59,14.70
2016,04,21,03,00,14.70
2016,04,21,03,01,14.70
2016,04,21,03,02,14.70
2016,04,21,03,03,14.70
2016,04,21,03,04,14.60
2016,04,21,03,05,14.60
2016,04,21,03,06,14.60
2016,04,21,03,07,14.60
2016,04,21,03,08,14.50
2016,04,21,03,09,14.50
2016,04,21,03,10,14.40
2016,04,21,03,11,14.40
2016,04,21,03,12,14.40
2016,04,21,03,13,14.30
2016,04,21,03,14,14.30
2016,04,21,03,15,14.30
2016,04,21,03,16,14.30
2016,04,21,03,17,14.30
2016,04,21,03,18,14.30
2016,04,21,03,19,14.20
2016,04,21,03,20,14.20
2016,04,21,03,21,14.20
2016,04,21,03,22,14.20
2016,04,21,03,23,14.20
2016,04,21,03,24,14.20
2016,04,21,03,25,14.20
2016,04,21,03,26,14.20
2016,04,21,03,27,14.20
2016,04,21,03,28,14.20
2016,04,21,03,29,14.10
2016,04,21,03,30,14.10
2016,04,21,03,31,14.10
2016,04,21,03,32,14.10
2016,04,21,03,33,14.10
2016,04,21,03,34,14.10
2016,04,21,03,35,14.10
2016,04,21,03,36,14.10
2016,04,21,03,37,14.10
2016,04,21,03,38,14.10
2016,04,21,03,39,14.10
2016,04,21,03,40,14.10
2016,04,21,03,41,14.10
2016,04,21,03,42,14.00
2016,04,21,03,43,14.00
2016,04,21,03,44,14.00
2016,04,21,03,45,14.00
2016,04,21,03,46,14.00
2016,04,21,03,47,14.00
2016,04,21,03,48,14.00
2016,04,21,03,49,14.00
2016,04,21,03,50,14.00
2016,04,21,03,51,14.00
2016,04,21,03,52,13.90
2016,04,21,03,53,13.90
2016,04,21,03,54,13.90
2016,04,21,03,55,13.90
2016,04,21,03,56,13.90
2016,04,21,03,57,13.90
2016,04,21,03,58,13.90
2016,04,21,03,59,13.90
2016,04,21,04,00,13.80
2016,04,21,04,01,13.80
2016,04,21,04,02,13.80
2016,04,21,04,03,13.80
2016,04,21,04,04,13.80
2016,04,21,04,05,13.80
2016,04,21,04,06,13.80
2016,04,21,04,07,13.70
2016,04,21,04,08,13.70
2016,04,21,04,09,13.70
2016,04,21,04,10,13.70
2016,04,21,04,11,13.70
2016,04,21,04,12,13.70
2016,04,21,04,13,13.70
2016,04,21,04,14,13.60
2016,04,21,04,15,13.60
2016,04,21,04,16,13.60
2016,04,21,04,17,13.60
2016,04,21,04,18,13.60
2016,04,21,04,19,13.60
2016,04,21,04,20,13.60
2016,04,21,04,21,13.60
2016,04,21,04,22,13.60
2016,04,21,04,23,13.60
2016,04,21,04,24,13.60
2016,04,21,04,25,13.50
2016,04,21,04,26,13.50
2016,04,21,04,27,13.50
2016,04,21,04,28,13.50
2016,04,21,04,29,13.40
2016,04,21,04,30,13.40
2016,04,21,04,31,13.40
2016,04,21,04,32,13.40
2016,04,21,04,33,13.40
2016,04,21,04,34,13.40
2016,04,21,04,35,13.40
2016,04,21,04,36,13.40
2016,04,21,04,37,13.40
2016,04,21,04,38,13.40
2016,04,21,04,39,13.40
2016,04,21,04,40,13.40
2016,04,21,04,41,13.40
2016,04,21,04,42,13.40
2016,04,21,04,43,13.40
2016,04,21,04,44,13.40
2016,04,21,04,45,13.40
2016,04,21,04,46,13.40
2016,04,21,04,47,13.40
2016,04,21,04,48,13.40
2016,04,21,04,49,13.40
2016,04,21,04,50,13.40
2016,04,21,04,51,13.40
2016,04,21,04,52,13.40
2016,04,21,04,53,13.40
2016,04,21,04,54,13.50
2016,04,21,04,55,13.50
2016,04,21,04,56,13.50
2016,04,21,04,57,13.50
2016,04,21,04,58,13.50
2016,04,21,04,59,13.50
2016,04,21,05,00,13.50
2016,04,21,05,01,13.50
2016,04,21,05,02,13.50
2016,04,21,05,03,13.50
2016,04,21,05,04,13.50
2016,04,21,05,05,13.40
2016,04,21,05,06,13.40
2016,04,21,05,07,13.40
2016,04,21,05,08,13.40
2016,04,21,05,09,13.40
2016,04,21,05,10,13.40
2016,04,21,05,11,13.40
2016,04,21,05,12,13.40
2016,04,21,05,13,13.40
2016,04,21,05,14,13.40
2016,04,21,05,15,13.40
2016,04,21,05,16,13.40
2016,04,21,05,17,13.30
2016,04,21,05,18,13.30
2016,04,21,05,19,13.30
2016,04,21,05,20,13.30
2016,04,21,05,21,13.30
2016,04,21,05,22,13.30
2016,04,21,05,23,13.30
2016,04,21,05,24,13.30
2016,04,21,05,25,13.30
2016,04,21,05,26,13.30
2016,04,21,05,27,13.30
2016,04,21,05,28,13.20
2016,04,21,05,29,13.20
2016,04,21,05,30,13.20
2016,04,21,05,31,13.20
2016,04,21,05,32,13.20
2016,04,21,05,33,13.20
2016,04,21,05,34,13.20
2016,04,21,05,35,13.10
2016,04,21,05,36,13.10
2016,04,21,05,37,13.10
2016,04,21,05,38,13.00
2016,04,21,05,39,13.00
2016,04,21,05,40,12.90
2016,04,21,05,41,12.90
2016,04,21,05,42,12.90
2016,04,21,05,43,12.90
2016,04,21,05,44,12.90
2016,04,21,05,45,13.00
2016,04,21,05,46,13.00
2016,04,21,05,47,13.00
2016,04,21,05,48,13.00
2016,04,21,05,49,13.00
2016,04,21,05,50,13.00
2016,04,21,05,51,13.00
2016,04,21,05,52,13.00
2016,04,21,05,53,13.00
2016,04,21,05,54,13.10
2016,04,21,05,55,13.10
2016,04,21,05,56,13.10
2016,04,21,05,57,13.10
2016,04,21,05,58,13.10
2016,04,21,05,59,13.10
2016,04,21,06,00,13.10
2016,04,21,06,01,13.10
2016,04,21,06,02,13.10
2016,04,21,06,03,13.10
2016,04,21,06,04,13.10
2016,04,21,06,05,13.10
2016,04,21,06,06,13.10
2016,04,21,06,07,13.10
2016,04,21,06,08,13.10
2016,04,21,06,09,13.10
2016,04,21,06,10,13.10
2016,04,21,06,11,13.00
2016,04,21,06,12,13.00
2016,04,21,06,13,13.00
2016,04,21,06,14,13.00
2016,04,21,06,15,13.00
2016,04,21,06,16,13.00
2016,04,21,06,17,13.00
2016,04,21,06,18,13.00
2016,04,21,06,19,12.90
2016,04,21,06,20,12.90
2016,04,21,06,21,12.90
2016,04,21,06,22,12.90
2016,04,21,06,23,12.90
2016,04,21,06,24,12.80
2016,04,21,06,25,12.80
2016,04,21,06,26,12.80
2016,04,21,06,27,12.80
2016,04,21,06,28,12.80
2016,04,21,06,29,12.80
2016,04,21,06,30,12.80
2016,04,21,06,31,12.70
2016,04,21,06,32,12.70
2016,04,21,06,33,12.70
2016,04,21,06,34,12.70
2016,04,21,06,35,12.70
2016,04,21,06,36,12.70
2016,04,21,06,37,12.70
2016,04,21,06,38,12.70
2016,04,21,06,39,12.70
2016,04,21,06,40,12.70
2016,04,21,06,41,12.70
2016,04,21,06,42,12.70
2016,04,21,06,43,12.70
2016,04,21,06,44,12.70
2016,04,21,06,45,12.70
2016,04,21,06,46,12.70
2016,04,21,06,47,12.70
2016,04,21,06,48,12.70
2016,04,21,06,49,12.70
2016,04,21,06,50,12.70
2016,04,21,06,51,12.70
2016,04,21,06,52,12.70
2016,04,21,06,53,12.70
2016,04,21,06,54,12.70
2016,04,21,06,55,12.70
2016,04,21,06,56,12.70
2016,04,21,06,57,12.70
2016,04,21,06,58,12.70
2016,04,21,06,59,12.70
2016,04,21,07,00,12.70
2016,04,21,07,01,12.80
2016,04,21,07,02,12.70
2016,04,21,07,03,12.80
2016,04,21,07,04,12.80
2016,04,21,07,05,12.80
2016,04,21,07,06,12.80
2016,04,21,07,07,12.80
2016,04,21,07,08,12.80
2016,04,21,07,09,12.90
2016,04,21,07,10,12.90
2016,04,21,07,11,12.90
2016,04,21,07,12,13.00
2016,04,21,07,13,13.00
2016,04,21,07,14,13.00
2016,04,21,07,15,13.10
2016,04,21,07,16,13.10
2016,04,21,07,17,13.10
2016,04,21,07,18,13.10
2016,04,21,07,19,13.10
2016,04,21,07,20,13.10
2016,04,21,07,21,13.00
2016,04,21,07,22,13.00
2016,04,21,07,23,13.00
2016,04,21,07,24,13.00
2016,04,21,07,25,12.90
2016,04,21,07,26,12.90
2016,04,21,07,27,12.90
2016,04,21,07,28,12.90
2016,04,21,07,29,12.90
2016,04,21,07,30,12.90
2016,04,21,07,31,12.80
2016,04,21,07,32,12.80
2016,04,21,07,33,12.80
2016,04,21,07,34,12.80
2016,04,21,07,35,12.80
2016,04,21,07,36,12.80
2016,04,21,07,37,12.80
2016,04,21,07,38,12.80
2016,04,21,07,39,12.80
2016,04,21,07,40,12.80
2016,04,21,07,41,12.70
2016,04,21,07,42,12.70
2016,04,21,07,43,12.70
2016,04,21,07,44,12.70
2016,04,21,07,45,12.70
2016,04,21,07,46,12.70
2016,04,21,07,47,12.70
2016,04,21,07,48,12.70
2016,04,21,07,49,12.70
2016,04,21,07,50,12.70
2016,04,21,07,51,12.70
2016,04,21,07,52,12.70
2016,04,21,07,53,12.70
2016,04,21,07,54,12.70
2016,04,21,07,55,12.70
2016,04,21,07,56,12.70
2016,04,21,07,57,12.70
2016,04,21,07,58,12.70
2016,04,21,07,59,12.70
2016,04,21,08,00,12.70
2016,04,21,08,01,12.70
2016,04,21,08,02,12.70
2016,04,21,08,03,12.70
2016,04,21,08,04,12.70
2016,04,21,08,05,12.70
2016,04,21,08,06,12.70
2016,04,21,08,07,12.70
2016,04,21,08,08,12.80
2016,04,21,08,09,12.80
2016,04,21,08,10,12.80
2016,04,21,08,11,12.80
2016,04,21,08,12,12.80
2016,04,21,08,13,12.80
2016,04,21,08,14,12.80
2016,04,21,08,15,12.80
2016,04,21,08,16,12.80
2016,04,21,08,17,12.80
2016,04,21,08,18,12.80
2016,04,21,08,19,12.80
2016,04,21,08,20,12.80
2016,04,21,08,21,12.90
2016,04,21,08,22,12.90
2016,04,21,08,23,12.90
2016,04,21,08,24,12.90
2016,04,21,08,25,12.90
2016,04,21,08,26,12.90
2016,04,21,08,27,13.00
2016,04,21,08,28,13.00
2016,04,21,08,29,13.00
2016,04,21,08,30,13.10
2016,04,21,08,31,13.10
2016,04,21,08,32,13.10
2016,04,21,08,33,13.20
2016,04,21,08,34,13.20
2016,04,21,08,35,13.20
2016,04,21,08,36,13.30
2016,04,21,08,37,13.30
2016,04,21,08,38,13.30
2016,04,21,08,39,13.40
2016,04,21,08,40,13.40
2016,04,21,08,41,13.40
2016,04,21,08,42,13.50
2016,04,21,08,43,13.50
2016,04,21,08,44,13.60
2016,04,21,08,45,13.60
2016,04,21,08,46,13.60
2016,04,21,08,47,13.70
2016,04,21,08,48,13.70
2016,04,21,08,49,13.70
2016,04,21,08,50,13.70
2016,04,21,08,51,13.80
2016,04,21,08,52,13.80
2016,04,21,08,53,13.80
2016,04,21,08,54,13.80
2016,04,21,08,55,13.90
2016,04,21,08,56,13.90
2016,04,21,08,57,13.90
2016,04,21,08,58,14.00
2016,04,21,08,59,14.00
2016,04,21,09,00,14.00
2016,04,21,09,01,14.10
2016,04,21,09,02,14.10
2016,04,21,09,03,14.10
2016,04,21,09,04,14.20
2016,04,21,09,05,14.20
2016,04,21,09,06,14.20
2016,04,21,09,07,14.30
2016,04,21,09,08,14.30
2016,04,21,09,09,14.30
2016,04,21,09,10,14.30
2016,04,21,09,11,14.30
2016,04,21,09,12,14.40
2016,04,21,09,13,14.40
2016,04,21,09,14,14.40
2016,04,21,09,15,14.50
2016,04,21,09,16,14.50
2016,04,21,09,17,14.50
2016,04,21,09,18,14.60
2016,04,21,09,19,14.60
2016,04,21,09,20,14.70
2016,04,21,09,21,14.70
2016,04,21,09,22,14.70
2016,04,21,09,23,14.80
2016,04,21,09,24,14.80
2016,04,21,09,25,14.80
2016,04,21,09,26,14.90
2016,04,21,09,27,14.90
2016,04,21,09,28,15.00
2016,04,21,09,29,15.00
2016,04,21,09,30,15.00
2016,04,21,09,31,15.00
2016,04,21,09,32,15.00
2016,04,21,09,33,15.00
2016,04,21,09,34,15.00
2016,04,21,09,35,15.00
2016,04,21,09,36,15.00
2016,04,21,09,37,15.00
2016,04,21,09,38,15.10
2016,04,21,09,39,15.20
2016,04,21,09,40,15.30
2016,04,21,09,41,15.30
2016,04,21,09,42,15.40
2016,04,21,09,43,15.40
2016,04,21,09,44,15.40
2016,04,21,09,45,15.50
2016,04,21,09,46,15.50
2016,04,21,09,47,15.50
2016,04,21,09,48,15.40
2016,04,21,09,49,15.40
2016,04,21,09,50,15.30
2016,04,21,09,51,15.30
2016,04,21,09,52,15.30
2016,04,21,09,53,15.30
2016,04,21,09,54,15.20
2016,04,21,09,55,15.20
2016,04,21,09,56,15.30
2016,04,21,09,57,15.30
2016,04,21,09,58,15.30
2016,04,21,09,59,15.30
2016,04,21,10,00,15.30
2016,04,21,10,01,15.30
2016,04,21,10,02,15.30
2016,04,21,10,03,15.20
2016,04,21,10,04,15.20
2016,04,21,10,05,15.20
2016,04,21,10,06,15.20
2016,04,21,10,07,15.20
2016,04,21,10,08,15.20
2016,04,21,10,09,15.20
2016,04,21,10,10,15.20
2016,04,21,10,11,15.30
2016,04,21,10,12,15.30
2016,04,21,10,13,15.30
2016,04,21,10,14,15.30
2016,04,21,10,15,15.40
2016,04,21,10,16,15.40
2016,04,21,10,17,15.50
2016,04,21,10,18,15.50
2016,04,21,10,19,15.60
2016,04,21,10,20,15.70
2016,04,21,10,21,15.80
2016,04,21,10,22,15.80
2016,04,21,10,23,15.90
2016,04,21,10,24,15.90
2016,04,21,10,25,16.00
2016,04,21,10,26,16.00
2016,04,21,10,27,16.10
2016,04,21,10,28,16.10
2016,04,21,10,29,16.20
2016,04,21,10,30,16.20
2016,04,21,10,31,16.30
2016,04,21,10,32,16.40
2016,04,21,10,33,16.40
2016,04,21,10,34,16.50
2016,04,21,10,35,16.60
2016,04,21,10,36,16.60
2016,04,21,10,37,16.60
2016,04,21,10,38,16.70
2016,04,21,10,39,16.70
2016,04,21,10,40,16.80
2016,04,21,10,41,16.80
2016,04,21,10,42,16.80
2016,04,21,10,43,16.90
2016,04,21,10,44,16.90
2016,04,21,10,45,16.90
2016,04,21,10,46,17.00
2016,04,21,10,47,17.10
2016,04,21,10,48,17.20
2016,04,21,10,49,17.20
2016,04,21,10,50,17.20
2016,04,21,10,51,17.30
2016,04,21,10,52,17.30
2016,04,21,10,53,17.30
2016,04,21,10,54,17.20
2016,04,21,10,55,17.20
2016,04,21,10,56,17.20
2016,04,21,10,57,17.20
2016,04,21,10,58,17.30
2016,04,21,10,59,17.30
2016,04,21,11,00,17.40
2016,04,21,11,01,17.40
2016,04,21,11,02,17.50
2016,04,21,11,03,17.50
2016,04,21,11,04,17.60
2016,04,21,11,05,17.60
2016,04,21,11,06,17.60
2016,04,21,11,07,17.60
2016,04,21,11,08,17.50
2016,04,21,11,09,17.50
2016,04,21,11,10,17.50
2016,04,21,11,11,17.40
2016,04,21,11,12,17.40
2016,04,21,11,13,17.50
2016,04,21,11,14,17.40
2016,04,21,11,15,17.40
2016,04,21,11,16,17.40
2016,04,21,11,17,17.40
2016,04,21,11,18,17.40
2016,04,21,11,19,17.40
2016,04,21,11,20,17.50
2016,04,21,11,21,17.50
2016,04,21,11,22,17.60
2016,04,21,11,23,17.60
2016,04,21,11,24,17.70
2016,04,21,11,25,17.80
2016,04,21,11,26,17.80
2016,04,21,11,27,17.90
2016,04,21,11,28,18.00
2016,04,21,11,29,18.10
2016,04,21,11,30,18.20
2016,04,21,11,31,18.20
2016,04,21,11,32,18.30
2016,04,21,11,33,18.30
2016,04,21,11,34,18.40
2016,04,21,11,35,18.40
2016,04,21,11,36,18.50
2016,04,21,11,37,18.50
2016,04,21,11,38,18.60
2016,04,21,11,39,18.70
2016,04,21,11,40,18.70
2016,04,21,11,41,18.70
2016,04,21,11,42,18.80
2016,04,21,11,43,18.80
2016,04,21,11,44,18.70
2016,04,21,11,45,18.70
2016,04,21,11,46,18.70
2016,04,21,11,47,18.60
2016,04,21,11,48,18.50
2016,04,21,11,49,18.40
2016,04,21,11,50,18.40
2016,04,21,11,51,18.20
2016,04,21,11,52,18.20
2016,04,21,11,53,18.10
2016,04,21,11,54,18.10
2016,04,21,11,55,18.00
2016,04,21,11,56,18.00
2016,04,21,11,57,17.90
2016,04,21,11,58,17.90
2016,04,21,11,59,17.90
2016,04,21,12,00,17.90
2016,04,21,12,01,17.80
2016,04,21,12,02,17.90
2016,04,21,12,03,17.90
2016,04,21,12,04,17.90
2016,04,21,12,05,18.00
2016,04,21,12,06,18.10
2016,04,21,12,07,18.10
2016,04,21,12,08,18.10
2016,04,21,12,09,18.10
2016,04,21,12,10,18.20
2016,04,21,12,11,18.20
2016,04,21,12,12,18.30
2016,04,21,12,13,18.40
2016,04,21,12,14,18.40
2016,04,21,12,15,18.40
2016,04,21,12,16,18.40
2016,04,21,12,17,18.40
2016,04,21,12,18,18.40
2016,04,21,12,19,18.50
2016,04,21,12,20,18.50
2016,04,21,12,21,18.40
2016,04,21,12,22,18.40
2016,04,21,12,23,18.40
2016,04,21,12,24,18.40
2016,04,21,12,25,18.40
2016,04,21,12,26,18.40
2016,04,21,12,27,18.30
2016,04,21,12,28,18.30
2016,04,21,12,29,18.30
2016,04,21,12,30,18.20
2016,04,21,12,31,18.10
2016,04,21,12,32,18.00
2016,04,21,12,33,17.90
2016,04,21,12,34,17.80
2016,04,21,12,35,17.70
2016,04,21,12,36,17.60
2016,04,21,12,37,17.60
2016,04,21,12,38,17.50
2016,04,21,12,39,17.50
2016,04,21,12,40,17.40
2016,04,21,12,41,17.50
2016,04,21,12,42,17.50
2016,04,21,12,43,17.50
2016,04,21,12,44,17.60
2016,04,21,12,45,17.60
2016,04,21,12,46,17.60
2016,04,21,12,47,17.60
2016,04,21,12,48,17.50
2016,04,21,12,49,17.40
2016,04,21,12,50,17.30
2016,04,21,12,51,17.20
2016,04,21,12,52,17.20
2016,04,21,12,53,17.10
2016,04,21,12,54,17.10
2016,04,21,12,55,17.10
2016,04,21,12,56,17.10
2016,04,21,12,57,17.20
2016,04,21,12,58,17.20
2016,04,21,12,59,17.30
2016,04,21,13,00,17.30
2016,04,21,13,01,17.30
2016,04,21,13,02,17.20
2016,04,21,13,03,17.20
2016,04,21,13,04,17.20
2016,04,21,13,05,17.10
2016,04,21,13,06,17.00
2016,04,21,13,07,17.00
2016,04,21,13,08,16.90
2016,04,21,13,09,16.90
2016,04,21,13,10,16.90
2016,04,21,13,11,16.90
2016,04,21,13,12,17.00
2016,04,21,13,13,17.10
2016,04,21,13,14,17.20
2016,04,21,13,15,17.30
2016,04,21,13,16,17.40
2016,04,21,13,17,17.50
2016,04,21,13,18,17.70
2016,04,21,13,19,17.80
2016,04,21,13,20,17.90
2016,04,21,13,21,17.90
2016,04,21,13,22,17.90
2016,04,21,13,23,18.00
2016,04,21,13,24,18.00
2016,04,21,13,25,18.00
2016,04,21,13,26,18.00
2016,04,21,13,27,18.10
2016,04,21,13,28,18.10
2016,04,21,13,29,18.20
2016,04,21,13,30,18.20
2016,04,21,13,31,18.20
2016,04,21,13,32,18.20
2016,04,21,13,33,18.10
2016,04,21,13,34,18.00
2016,04,21,13,35,17.90
2016,04,21,13,36,17.80
2016,04,21,13,37,17.70
2016,04,21,13,38,17.60
2016,04,21,13,39,17.60
2016,04,21,13,40,17.50
2016,04,21,13,41,17.50
2016,04,21,13,42,17.50
2016,04,21,13,43,17.50
2016,04,21,13,44,17.60
2016,04,21,13,45,17.60
2016,04,21,13,46,17.70
2016,04,21,13,47,17.70
2016,04,21,13,48,17.80
2016,04,21,13,49,17.80
2016,04,21,13,50,17.90
2016,04,21,13,51,17.90
2016,04,21,13,52,18.00
2016,04,21,13,53,18.10
2016,04,21,13,54,18.10
2016,04,21,13,55,18.10
2016,04,21,13,56,18.10
2016,04,21,13,57,18.10
2016,04,21,13,58,18.10
2016,04,21,13,59,18.20
2016,04,21,14,00,18.20
2016,04,21,14,01,18.30
2016,04,21,14,02,18.40
2016,04,21,14,03,18.60
2016,04,21,14,04,18.80
2016,04,21,14,05,18.90
2016,04,21,14,06,19.00
2016,04,21,14,07,19.20
2016,04,21,14,08,19.30
2016,04,21,14,09,19.40
2016,04,21,14,10,19.50
2016,04,21,14,11,19.50
2016,04,21,14,12,19.50
2016,04,21,14,13,19.50
2016,04,21,14,14,19.50
2016,04,21,14,15,19.40
2016,04,21,14,16,19.40
2016,04,21,14,17,19.30
2016,04,21,14,18,19.30
2016,04,21,14,19,19.30
2016,04,21,14,20,19.20
2016,04,21,14,21,19.20
2016,04,21,14,22,19.20
2016,04,21,14,23,19.20
2016,04,21,14,24,19.10
2016,04,21,14,25,19.10
2016,04,21,14,26,19.00
2016,04,21,14,27,19.00
2016,04,21,14,28,18.90
2016,04,21,14,29,18.90
2016,04,21,14,30,18.80
2016,04,21,14,31,18.70
2016,04,21,14,32,18.60
2016,04,21,14,33,18.60
2016,04,21,14,34,18.60
2016,04,21,14,35,18.70
2016,04,21,14,36,18.70
2016,04,21,14,37,18.80
2016,04,21,14,38,18.90
2016,04,21,14,39,19.00
2016,04,21,14,40,19.10
2016,04,21,14,41,19.10
2016,04,21,14,42,19.20
2016,04,21,14,43,19.20
2016,04,21,14,44,19.20
2016,04,21,14,45,19.20
2016,04,21,14,46,19.10
2016,04,21,14,47,19.00
2016,04,21,14,48,19.00
2016,04,21,14,49,19.00
2016,04,21,14,50,19.00
2016,04,21,14,51,19.10
2016,04,21,14,52,19.20
2016,04,21,14,53,19.20
2016,04,21,14,54,19.30
2016,04,21,14,55,19.40
2016,04,21,14,56,19.60
2016,04,21,14,57,19.70
2016,04,21,14,58,19.70
2016,04,21,14,59,19.70
2016,04,21,15,00,19.70
2016,04,21,15,01,19.70
2016,04,21,15,02,19.80
2016,04,21,15,03,19.90
2016,04,21,15,04,20.00
2016,04,21,15,05,20.00
2016,04,21,15,06,20.00
2016,04,21,15,07,20.00
2016,04,21,15,08,20.00
2016,04,21,15,09,20.00
2016,04,21,15,10,20.00
2016,04,21,15,11,20.00
2016,04,21,15,12,20.00
2016,04,21,15,13,19.90
2016,04,21,15,14,19.80
2016,04,21,15,15,19.70
2016,04,21,15,16,19.60
2016,04,21,15,17,19.50
2016,04,21,15,18,19.50
2016,04,21,15,19,19.40
2016,04,21,15,20,19.40
2016,04,21,15,21,19.40
2016,04,21,15,22,19.50
2016,04,21,15,23,19.60
2016,04,21,15,24,19.70
2016,04,21,15,25,19.80
2016,04,21,15,26,19.90
2016,04,21,15,27,20.00
2016,04,21,15,28,20.10
2016,04,21,15,29,20.20
2016,04,21,15,30,20.20
2016,04,21,15,31,20.20
2016,04,21,15,32,20.30
2016,04,21,15,33,20.30
2016,04,21,15,34,20.30
2016,04,21,15,35,20.30
2016,04,21,15,36,20.30
2016,04,21,15,37,20.20
2016,04,21,15,38,20.20
2016,04,21,15,39,20.20
2016,04,21,15,40,20.20
2016,04,21,15,41,20.10
2016,04,21,15,42,20.10
2016,04,21,15,43,20.10
2016,04,21,15,44,20.10
2016,04,21,15,45,20.10
2016,04,21,15,46,20.10
2016,04,21,15,47,20.10
2016,04,21,15,48,20.20
2016,04,21,15,49,20.30
2016,04,21,15,50,20.40
2016,04,21,15,51,20.40
2016,04,21,15,52,20.50
2016,04,21,15,53,20.60
2016,04,21,15,54,20.60
2016,04,21,15,55,20.70
2016,04,21,15,56,20.60
2016,04,21,15,57,20.60
2016,04,21,15,58,20.60
2016,04,21,15,59,20.60
2016,04,21,16,00,20.60
2016,04,21,16,01,20.60
2016,04,21,16,02,20.70
2016,04,21,16,03,20.70
2016,04,21,16,04,20.70
2016,04,21,16,05,20.80
2016,04,21,16,06,20.80
2016,04,21,16,07,20.80
2016,04,21,16,08,20.80
2016,04,21,16,09,20.80
2016,04,21,16,10,20.70
2016,04,21,16,11,20.60
2016,04,21,16,12,20.50
2016,04,21,16,13,20.50
2016,04,21,16,14,20.40
2016,04,21,16,15,20.40
2016,04,21,16,16,20.40
2016,04,21,16,17,20.40
2016,04,21,16,18,20.40
2016,04,21,16,19,20.40
2016,04,21,16,20,20.50
2016,04,21,16,21,20.50
2016,04,21,16,22,20.50
2016,04,21,16,23,20.50
2016,04,21,16,24,20.50
2016,04,21,16,25,20.60
2016,04,21,16,26,20.60
2016,04,21,16,27,20.70
2016,04,21,16,28,20.70
2016,04,21,16,29,20.70
2016,04,21,16,30,20.80
2016,04,21,16,31,20.80
2016,04,21,16,32,20.80
2016,04,21,16,33,20.90
2016,04,21,16,34,20.90
2016,04,21,16,35,20.90
2016,04,21,16,36,20.90
2016,04,21,16,37,20.90
2016,04,21,16,38,20.90
2016,04,21,16,39,21.00
2016,04,21,16,40,21.00
2016,04,21,16,41,21.00
2016,04,21,16,42,21.00
2016,04,21,16,43,21.00
2016,04,21,16,44,21.00
2016,04,21,16,45,20.90
2016,04,21,16,46,20.90
2016,04,21,16,47,20.90
2016,04,21,16,48,20.90
2016,04,21,16,49,20.90
2016,04,21,16,50,20.90
2016,04,21,16,51,20.90
2016,04,21,16,52,20.80
2016,04,21,16,53,20.80
2016,04,21,16,54,20.80
2016,04,21,16,55,20.80
2016,04,21,16,56,20.80
2016,04,21,16,57,20.80
2016,04,21,16,58,20.80
2016,04,21,16,59,20.80
2016,04,21,17,00,20.80
2016,04,21,17,01,20.80
2016,04,21,17,02,20.80
2016,04,21,17,03,20.80
2016,04,21,17,04,20.90
2016,04,21,17,05,20.90
2016,04,21,17,06,20.90
2016,04,21,17,07,20.90
2016,04,21,17,08,20.90
2016,04,21,17,09,20.90
2016,04,21,17,10,20.90
2016,04,21,17,11,20.80
2016,04,21,17,12,20.80
2016,04,21,17,13,20.80
2016,04,21,17,14,20.80
2016,04,21,17,15,20.80
2016,04,21,17,16,20.80
2016,04,21,17,17,20.80
2016,04,21,17,18,20.90
2016,04,21,17,19,20.90